Showing default

LANDSAT 8, 39084

Orbit data source: Space-Track

LANDSAT 8, 39084 is a payload satellite owned by USGS EROS (US) in SSO that was launched on Mon, 11 Feb 2013 UTC via an ATLAS V 401 launch vehicle from the Air Force Western Test Range (AFWTR). Payload-class satellites include a variety of spacecraft equipped with specific instruments for various scientific and technological missions. These include communications satellites like Starlink; space stations such as the ISS; scientific satellites like the Hubble; Earth observation satellites from companies like Planet Labs, Umbra, and HawkEye 360; GPS; miniature CubeSats for education and research; and military/defense satellites.

Loading next visibility...
Identifier
39084, 2013-008A
Orbit
SSO
Country
Flag of USUS
Related business
Manufacturer
OSC-Gilbert
Mission
Operational Civil Imaging
Bus & Motor
LEOSTAR-3, Unknown motor
Mass
2,782 kg wet, 2,387 kg dry
Launch date (UTC)
2013-02-11 (13 years ago)
Launch vehicle
ATLAS V 401
Launch site
Air Force Western Test Range (AFWTR)
Object type
Payload
Rocket body
Debris
Shape & HBR
Hex Cyl + 1 Pan, 10.7 m
Radar Cross Section
17.735 m², Large (>1 m²)

Expand to show TLE details & history
Last TLE update: 6 days ago

TLE from 6 days ago
0 LANDSAT 8
1 39084U 13008A   26155.25212726  .00000418  00000-0  10279-3 0  9997
2 39084  98.2303 225.5405 0001450  97.6461 262.4902 14.57109946696010
Epoch: 2026-06-04T06:03Z
TLE epoch observation values (Epoch: 2026-06-04T06:03:03.795Z)
Latitude
-0.00002°
Longitude
-117.92437°
Altitude
705.636 km
Speed
7.503 km/s
True Right ascension
15h 02m 09s
True Declination
0° 00' 00"
Sunlit
Object was in full shadow at epoch
Visualization orbit readout
Latitude
Unknown
Longitude
Unknown
Altitude
Unknown
Speed
Unknown
Apparent Right ascension
Unknown
Apparent Declination
Unknown
Sunlit
N/A
Visualization observer readout
Local Sidereal Time
11:31:45
Azimuth
Unknown
Elevation
Unknown
Doppler factor
Unknown
Orbital elements
Apogee altitude
700.634 km
Perigee altitude
698.581 km
Semi-major axis
7,077.745 km
Eccentricity
0.00015
Inclination
98.2303°
RAAN
225.5405°
Arg. of periapsis
97.6461°
True anomaly
262.47373°
Mean anomaly
262.4902°
Eccentric anomaly
262.48196°
Mean motion
3.64503 °/min
Orbital period
98.76 mins
BSTAR
0.00010279
Loading maneuver chart data...
Computing Atmospheric mass density...
Loading historical data...
Loading historical data...
Loading historical data...
Loading historical data...
Loading historical data...
Loading historical data...
Loading historical data...
Other satellites on launch #8 in the year 2013 (2013-02-11 UTC)

Documentation

Showing up to 5 results
|